Weather History for Medford, OR

Change the Weather History Date:

Thursday, July 24, 2014

  Actual Average Record
Temperature  
Mean Temperature 66 °F 76 °F  
Max Temperature 83 °F 93 °F 105 °F (2004)
Min Temperature 48 °F 59 °F 47 °F (1992)
Degree Days  
Heating Degree Days 0 0  
Month to date heating degree days 0 1  
Since 1 June heating degree days 22 55  
Since 1 July heating degree days 0 1  
Cooling Degree Days 1 11  
Month to date cooling degree days 356 211  
Year to date cooling degree days 523 357  
Since 1 June cooling degree days 467 319  
Growing Degree Days 15 (Base 50)    
Moisture  
Dew Point 44 °F    
Average Humidity 54    
Maximum Humidity 86    
Minimum Humidity 21    
Precipitation  
Precipitation 0.00 in 0.00 in 1.45 in (1913)
Month to date precipitation 0.10 0.22  
Year to date precipitation 10.76 9.68  
Snow  
Snow 0.00 in 0.00 in - ()
Month to date snowfall 0.0 0.0  
Since 1 July snowfall 0.0 0.0  
Snow Depth 0.00 in    
Sea Level Pressure  
Sea Level Pressure 30.17 in    
Wind  
Wind Speed 5 mph (North)    
Max Wind Speed 17 mph    
Max Gust Speed 20 mph    
Visibility 10 miles    
Events      
T = Trace of Precipitation, MM = Missing Value Source: NWS Daily Summary

Daily Weather History Graph

Daily Weather History Graph

Search for Another Location

Airport:

Trip Planner

Search our weather history database for the weather conditions in past years. The results will help you decide how hot, cold, wet, or windy it might be!

Date:

Astronomy

Jul. 24, 2014 Rise Set
Actual Time 5:56 AM PDT 8:39 PM PDT
Civil Twilight 5:23 AM PDT 9:11 PM PDT
Nautical Twilight 4:42 AM PDT 9:52 PM PDT
Astronomical Twilight 3:55 AM PDT 10:39 PM PDT
Moon 4:09 AM PDT (7/24) 6:57 PM PDT (7/24)
Length of Visible Light 15h 48m
Length of Day
14h 43m
Waning Crescent, 4% of the Moon is Illuminated
Jul 24
Waning Crescent
Jul 26
New
Aug 3
First Quarter
Aug 10
Full
Aug 17
Last Quarter

Hourly Weather History & Observations

Time (PDT) Temp. Dew Point Humidity Pressure Visibility Wind Dir Wind Speed Gust Speed Precip Events Conditions
12:53 AM 59.0 °F 46.9 °F 64% 30.22 in 10.0 mi NW 5.8 mph - N/A   Overcast
1:53 AM 55.9 °F 46.9 °F 72% 30.23 in 10.0 mi ENE 4.6 mph - N/A   Mostly Cloudy
2:53 AM 54.0 °F 46.9 °F 77% 30.23 in 10.0 mi North 8.1 mph - N/A   Mostly Cloudy
3:53 AM 50.0 °F 46.0 °F 86% 30.25 in 10.0 mi NNE 3.5 mph - N/A   Clear
4:53 AM 50.0 °F 45.0 °F 83% 30.26 in 10.0 mi Calm Calm - N/A   Clear
5:53 AM 48.9 °F 45.0 °F 86% 30.27 in 10.0 mi NNE 6.9 mph - N/A   Clear
6:53 AM 50.0 °F 46.0 °F 86% 30.28 in 10.0 mi Calm Calm - N/A   Clear
7:53 AM 53.1 °F 46.0 °F 77% 30.28 in 10.0 mi Calm Calm - N/A   Clear
8:53 AM 57.0 °F 45.0 °F 64% 30.28 in 10.0 mi North 4.6 mph - N/A   Clear
9:53 AM 60.1 °F 46.0 °F 60% 30.26 in 10.0 mi North 6.9 mph - N/A   Clear
10:53 AM 64.9 °F 42.1 °F 43% 30.24 in 10.0 mi Calm Calm - N/A   Clear
11:53 AM 68.0 °F 39.9 °F 36% 30.22 in 10.0 mi NNW 6.9 mph - N/A   Clear
12:53 PM 73.0 °F 37.9 °F 28% 30.18 in 10.0 mi Variable 6.9 mph - N/A   Clear
1:53 PM 75.0 °F 37.9 °F 26% 30.15 in 10.0 mi Calm Calm - N/A   Partly Cloudy
2:53 PM 78.1 °F 37.0 °F 23% 30.11 in 10.0 mi Variable 3.5 mph - N/A   Clear
3:53 PM 80.1 °F 37.9 °F 22% 30.08 in 10.0 mi NW 5.8 mph - N/A   Clear
4:53 PM 80.1 °F 39.0 °F 23% 30.05 in 10.0 mi West 4.6 mph - N/A   Clear
5:53 PM 82.0 °F 44.1 °F 26% 30.03 in 10.0 mi NNW 11.5 mph - N/A   Clear
6:53 PM 79.0 °F 46.9 °F 32% 30.04 in 10.0 mi NNW 13.8 mph - N/A   Clear
7:53 PM 75.9 °F 48.0 °F 37% 30.04 in 10.0 mi NNW 12.7 mph - N/A   Clear
8:53 PM 72.0 °F 48.0 °F 43% 30.06 in 10.0 mi NNW 6.9 mph - N/A   Clear
9:53 PM 70.0 °F 48.9 °F 47% 30.07 in 10.0 mi NNW 4.6 mph - N/A   Clear
10:53 PM 66.0 °F 48.9 °F 54% 30.08 in 10.0 mi North 4.6 mph - N/A   Clear
11:53 PM 64.0 °F 48.9 °F 58% 30.07 in 10.0 mi North 4.6 mph - N/A   Clear